Track COSMOS 2507 now! 10-day predictions COSMOS 2507 is classified as:
1 40920U 15050A 24337.61689542 .00000068 00000-0 42091-3 0 9999 2 40920 82.4932 69.2734 0010470 132.9508 227.2451 12.42901106417096